#timestamp,LO_Frequency,Hit,StdDev 
1635494415.8,286047000.7,N
1635494435.6,286047000.8,N
1635494455.5,286047002.8,N
1635494475.3,286047000.0,N
1635494495.1,286047000.9,N
1635494515.9,286046999.0,N
1635494535.7,286046998.8,N
1635494555.5,286046999.3,N
1635494575.4,286047000.7,N
1635494595.2,286047001.0,N
1635494615.1,286046998.3,N
1635494616.0,286046998.3,N
1635494635.8,286046997.7,N
1635494655.6,286046997.0,N
1635494675.5,286046999.0,N
1635494695.3,286046998.1,N
1635494715.1,286046996.7,N
1635494735.9,286046999.5,N
1635494755.7,286046996.9,N
1635494775.6,286046999.1,N
1635494795.4,286046996.5,N
1635494815.2,286046997.1,N
1635494835.1,286046994.9,Y
1635494836.0,286046994.9,P
1635494855.8,286046996.5,N
1635494875.7,286047000.8,N
1635494895.5,286047000.5,N
1635494915.3,286046998.1,N
1635494935.2,286046996.6,N
1635494955.9,286046996.9,N
1635494975.7,286046995.4,N
1635494995.6,286046995.1,N
1635495015.4,286046995.1,N
1635495035.3,286046996.9,N
1635495055.1,286046997.3,N
1635495056.0,286046997.3,N
1635495075.8,286046995.8,N
1635495095.7,286046994.0,Y
1635495115.5,286046996.7,P
1635495135.3,286046998.0,P
1635495155.2,286046995.2,P
1635495175.0,286046996.3,Y
1635495175.9,286046996.3,P
1635495195.8,286046997.3,P
1635495215.6,286046997.7,P
1635495235.4,286046998.2,Y
1635495255.3,286047003.2,P
1635495275.1,286047003.3,N
1635495295.9,286047005.4,N
1635495315.7,286047003.6,N
1635495335.5,286047005.9,N
1635495355.4,286047005.5,N
1635495375.2,286047003.1,N
1635495395.0,286047001.3,N
1635495395.9,286047001.3,N
1635495415.8,286047004.0,N
1635495435.6,286047001.8,N
1635495455.5,286047001.7,N
1635495475.3,286047004.2,N
1635495495.1,286047003.3,N
1635495515.9,286047003.4,N
1635495535.7,286047003.6,N
1635495555.5,286047004.4,N
1635495575.4,286047004.1,N
1635495595.2,286047003.4,N
1635495615.1,286046999.9,N
1635495616.0,286046999.9,N
1635495635.8,286046999.8,N
1635495655.6,286047002.2,N
1635495675.5,286047004.2,N
1635495695.3,286047001.8,N
1635495715.1,286047002.2,N
1635495735.9,286047004.1,N
1635495755.7,286047003.3,N
1635495775.6,286047003.1,N
1635495795.4,286047004.1,N
1635495815.2,286047002.7,N
1635495835.1,286047004.2,N
1635495836.0,286047004.2,N
1635495855.8,286047003.6,N
1635495875.7,286047003.5,N
1635495895.5,286047004.2,N
1635495915.3,286047002.5,N
1635495935.2,286046999.8,N
1635495955.0,286047001.3,N
1635495955.9,286047001.3,N
1635495975.7,286047004.4,N
1635495995.6,286047003.2,N
1635496015.4,286047003.4,N
1635496035.3,286047005.3,Y
1635496055.1,286047001.9,P
1635496056.0,286047001.9,P
1635496075.8,286046999.7,N
1635496095.7,286046999.9,N
1635496115.5,286047002.7,N
1635496135.4,286047002.0,N
1635496155.2,286047002.3,N
1635496175.0,286047000.2,N
1635496175.9,286047000.2,N
1635496195.8,286047002.8,N
1635496215.6,286046999.9,N
1635496235.4,286047000.1,N
1635496255.3,286047000.5,N
1635496275.1,286046999.6,N
1635496295.9,286046997.4,N
1635496315.7,286046999.5,N
1635496335.5,286046999.4,N
1635496355.4,286046998.3,N
1635496375.2,286046998.1,N
1635496395.0,286046998.9,N
1635496396.0,286046998.9,N
1635496415.8,286046998.2,N
1635496435.6,286047000.9,N
1635496455.5,286047000.8,N
1635496475.3,286047000.9,N
1635496495.1,286047001.2,N
1635496515.9,286047000.8,N
1635496535.7,286046998.2,N
1635496555.6,286047000.9,N
1635496575.4,286046999.4,N
1635496595.2,286046999.4,N
1635496615.1,286046998.6,N
1635496616.0,286046998.6,N
1635496635.8,286047000.7,N
1635496655.6,286047002.8,N
1635496675.5,286047001.3,N
1635496695.3,286047001.5,N
1635496715.2,286047002.0,N
1635496735.9,286047002.0,N
1635496755.7,286047000.5,N
1635496775.6,286047001.1,N
1635496795.4,286047001.0,N
1635496815.3,286047000.3,N
1635496835.1,286047000.6,N
1635496836.0,286047000.6,N
1635496855.8,286047000.9,N
1635496875.7,286046998.1,N
1635496895.5,286046998.2,N
1635496915.3,286047000.8,N
1635496935.2,286047001.2,N
1635496955.0,286046998.4,N
1635496955.9,286046998.4,N
1635496975.8,286046998.9,N
1635496995.6,286046998.5,N
1635497015.4,286046998.4,N
1635497035.3,286047000.4,N
1635497055.1,286047000.6,N
1635497075.8,286047002.1,N
1635497095.7,286046999.9,N
1635497115.5,286047001.1,N
1635497135.4,286046999.8,N
1635497155.2,286047000.2,N
1635497175.0,286047000.4,N
1635497175.9,286047000.4,N
1635497195.8,286047001.0,N
1635497215.6,286047000.2,N
1635497235.5,286047002.6,N
1635497255.3,286046999.7,N
1635497275.1,286047002.1,N
1635497295.9,286047008.4,Y
1635497315.7,286047004.5,P
1635497335.5,286047001.8,N
1635497355.4,286047000.6,N
1635497375.2,286047005.3,Y
1635497395.1,286047010.7,P
1635497396.0,286047010.7,N
1635497415.8,286047008.9,N
1635497435.6,286047010.1,N
1635497455.5,286047004.5,N
1635497475.3,286047006.0,N
1635497495.2,286047006.7,N
1635497515.9,286047012.5,Y
1635497535.7,286047009.5,P
1635497555.6,286047011.3,P
1635497575.4,286047008.0,P
1635497595.3,286047003.5,N
1635497615.1,286047000.2,N
1635497616.0,286047000.2,N
1635497635.8,286046999.9,N
1635497655.7,286047000.4,N
1635497675.5,286046997.4,N
1635497695.4,286046994.2,N
1635497715.2,286046992.3,N
1635497735.0,286046990.5,N
1635497735.9,286046990.5,N
1635497755.8,286046992.3,N
1635497775.6,286046995.7,N
1635497795.4,286047001.1,N
1635497815.3,286047001.4,N
1635497835.1,286047005.3,N
1635497855.9,286047003.9,N
1635497875.7,286046999.8,N
1635497895.5,286047000.8,N
1635497915.4,286046997.0,N
1635497935.2,286046998.4,N
1635497955.1,286047002.8,N
1635497956.0,286047002.8,N
1635497975.8,286047010.2,N
1635497995.6,286047008.6,N
